User: anonymous   Login
Location: Unspecified
(0.0000°N, 0.0000°E)
Time: 21:50:46
(UTC+00:00)
Language:

TABLETSAT AURORA - Orbit

View from above orbital plane
View from above orbital plane
View from above satellite
View from above satellite

Ground track
Ground track

The orbit data is extracted from the following two-line orbital elements,

1 40017U 14033H   18146.49592811  .00000253  00000-0  29994-4 0  9999
2 40017  97.9568  75.4613 0022034 272.7772  87.0925 14.93091731214195
Epoch (UTC): 26 May 2018 11:54:08
Eccentricity: 0.0022034
inclination: 97.9568°
perigee height: 573 km
apogee height: 603 km
right ascension of ascending node: 75.4613°
argument of perigee: 272.7772°
revolutions per day: 14.93091731
mean anomaly at epoch: 87.0925°
orbit number at epoch: 21419

The dashed part of the orbit path shows where the satellite is in the earth's shadow,  

DLR